FW5298 Weather Reports


time (UTC)temp
C
wind
direction
speed
KPH
gust
KPH
rain 1hr
cm
rain 24hr
cm
rain mn
cm
humidity
%
barometer
mb
20260503225614 8 208 3.2 6.4 0.00 0.00 0.00 53 1015.0
20260503224550 8 220 1.6 3.2 0.00 0.00 0.00 52 1015.3
20260503223547 8 217 3.2 6.4 0.00 0.00 0.00 52 1015.2
20260503222546 8 217 3.2 3.2 0.00 0.00 0.00 52 1015.3
20260503221544 8 225 1.6 9.7 0.00 0.00 0.00 52 1015.3
20260503220543 8 212 3.2 33.8 0.00 0.00 0.00 52 1015.4
20260503215539 8 221 3.2 16.1 0.00 0.00 0.00 52 1015.3
20260503214557 8 207 3.2 6.4 0.00 0.00 0.00 51 1015.5
20260503213556 9 205 3.2 8.0 0.00 0.00 0.00 52 1015.5
20260503212553 9 214 3.2 14.5 0.00 0.00 0.00 52 1015.5
20260503211531 9 215 1.6 14.5 0.00 0.00 0.00 52 1015.6
20260503210529 9 194 1.6 9.7 0.00 0.00 0.00 51 1015.7
20260503205527 9 225 1.6 3.2 0.00 0.00 0.00 50 1015.8
20260503204526 10 220 3.2 17.7 0.00 0.00 0.00 49 1015.9
20260503203543 10 207 1.6 14.5 0.00 0.00 0.00 50 1016.0
20260503202521 10 217 1.6 3.2 0.00 0.00 0.00 50 1016.0
20260503201559 10 196 3.2 9.7 0.00 0.00 0.00 50 1016.0
20260503200517 10 202 1.6 8.0 0.00 0.00 0.00 50 1016.1
20260503195515 10 225 1.6 9.7 0.00 0.00 0.00 50 1016.1
20260503194513 10 213 1.6 6.4 0.00 0.00 0.00 50 1016.2
20260503193511 10 212 1.6 3.2 0.00 0.00 0.00 50 1016.3
20260503192509 10 217 1.6 11.3 0.00 0.00 0.00 49 1016.3
20260503191548 10 207 3.2 9.7 0.00 0.00 0.00 49 1016.2
20260503190526 11 212 1.6 8.0 0.00 0.00 0.00 49 1016.2
20260503185503 11 209 1.6 4.8 0.00 0.00 0.00 48 1016.3
20260503184502 11 198 3.2 9.7 0.00 0.00 0.00 48 1016.3
20260503183459 11 211 3.2 17.7 0.00 0.00 0.00 48 1016.2
20260503182457 11 205 3.2 4.8 0.00 0.00 0.00 48 1016.2
20260503181456 12 202 1.6 8.0 0.00 0.00 0.00 47 1016.2
20260503180513 12 222 1.6 16.1 0.00 0.00 0.00 46 1016.3
20260503175511 12 192 3.2 17.7 0.00 0.00 0.00 45 1016.3
20260503174449 12 193 1.6 6.4 0.00 0.00 0.00 45 1016.3
20260503173448 13 215 1.6 11.3 0.00 0.00 0.00 44 1016.3
20260503172506 13 215 1.6 8.0 0.00 0.00 0.00 44 1016.3
20260503171444 13 225 1.6 3.2 0.00 0.00 0.00 44 1016.4
20260503170442 13 212 3.2 16.1 0.00 0.00 0.00 43 1016.5